[[{"header":{"parameterUnit":"m.s-1","parameterCategory":1,"la1":30.2991,"la2":30.254,"lo1":-89.0895,"lo2":-89.0444,"dy":0.0017,"dx":0.0017,"nx":28,"ny":28,"refTime":"2024-08-10T21:00:00:Z","depth":0,"parameterNumber":2,"parameterNumberName":"U-component_of_WINDS"},"data":[0,0,0,0,0,0,0,0,0,0,0,0,0,0,0,0,0,0,0,0,0,0,0,0,0,0,0,0,0,0,0,0,0,0,0,0,0,0,0,0,0,0,0,0,0,0,0,0,0,0,0,0,0,0,0,0,0,0,0.7875,0.7876,0,0.8035,0.8036,0.8038,0.8046,0.8044,0.8042,0.804,0.8209,0.8215,0.8222,0,0,0,0,0,0,0,0,0,0,0,0,0,0.7581,0.7586,0.7875,0.7877,0.7879,0.8034,0.8036,0.8039,0.8046,0.8044,0.8041,0.8039,0.8207,0.8215,0.8222,0,0,0,0,0,0,0,0,0,0,0,0,0,0.7722,0.7588,0.7874,0.7901,0.7905,0.8034,0.8037,0.8039,0.8046,0.8044,0.8041,0.8038,0.8205,0.8214,0.8223,0.8338,0,0,0.8252,0.8256,0,0,0,0,0,0,0,0,0.7714,0.7732,0.7895,0.7899,0.7904,0.8017,0.7995,0.814,0.8047,0.7993,0.804,0.8037,0.8148,0.8162,0.8198,0.8346,0.8353,0.8253,0.8258,0.8263,0.8265,0,0,0,0,0,0,0,0.7704,0.7726,0.7938,0.7897,0.7903,0.7907,0.7923,0.8023,0.8085,0.7997,0.7998,0.8017,0.815,0.8189,0.8202,0.8356,0.8252,0.8261,0.8267,0.827,0.8608,0.8611,0,0,0,0,0,0,0.7688,0.7717,0.7933,0.7943,0.78,0.7914,0.7933,0.7984,0.8083,0.8096,0.8019,0.8017,0.8175,0.8191,0.8208,0.8351,0.8262,0.8271,0.8277,0.8605,0.8609,0.8612,0,0,0,0,0,0,0.7682,0.7707,0.7927,0.783,0.7859,0.7922,0.7979,0.7988,0.8028,0.81,0.8111,0.8047,0.8173,0.8195,0.8306,0.8357,0.8275,0.8284,0.8601,0.8606,0.8611,0.8636,0,0,0,0,0,0,0.7673,0.7705,0.7748,0.7831,0.7864,0.802,0.7982,0.7994,0.8043,0.8041,0.813,0.8141,0.8172,0.8292,0.8315,0.8368,0.8291,0.8597,0.8603,0.8609,0.8631,0.8641,0.865,0,0,0,0,0,0.7663,0.775,0.775,0.7776,0.7918,0.8023,0.8041,0.8074,0.8047,0.8092,0.8139,0.8139,0.8347,0.8303,0.833,0.8386,0.8594,0.8601,0.8609,0.8627,0.8639,0.865,0,0,0,0,0,0,0.7672,0.7761,0.7763,0.7878,0.7943,0.8023,0.8081,0.8086,0.816,0.8156,0.8194,0.8214,0.8324,0.8366,0.8316,0.8504,0.8468,0.8481,0.8472,0.8485,0.8494,0.8482,0.8299,0,0,0,0,0,0.7687,0.7763,0.7837,0.7932,0.7964,0.8017,0.8063,0.8083,0.8152,0.8179,0.8234,0.8303,0.8384,0.8436,0.8515,0.8637,0.8657,0.8689,0.8698,0.8706,0.8717,0.8786,0.8802,0.8637,0.8637,0.8637,0,0,0.772,0.7778,0.7824,0.7935,0.7987,0.8067,0.804,0.8124,0.8184,0.8193,0.8301,0.8343,0.8422,0.8539,0.8594,0.8578,0.8767,0.8715,0.8721,0.8728,0.8796,0.8811,0.8825,0.8642,0.8641,0.864,0,0,0.7821,0.7871,0.7957,0.8009,0.8088,0.8122,0.8143,0.8223,0.8252,0.836,0.8368,0.8441,0.8579,0.8636,0.8683,0.8805,0.8809,0.883,0.888,0.8947,0.896,0.8972,0.9017,0.9033,0.884,0.8841,0.8841,0,0.7852,0.797,0.8,0.8085,0.8135,0.8145,0.8233,0.8283,0.8384,0.8419,0.8399,0.8573,0.8627,0.8759,0.8788,0.8825,0.8852,0.882,0.8955,0.8968,0.8979,0.9023,0.9039,0.8843,0.8842,0.8842,0.8842,0,0.8006,0.8087,0.8147,0.8243,0.8299,0.8385,0.8431,0.8485,0.8499,0.8536,0.8648,0.8712,0.8805,0.8837,0.8853,0.8971,0.8959,0.8947,0.8912,0.8996,0.9038,0.9055,0.8846,0.8845,0.8844,0.8844,0,0,0.8117,0.8228,0.825,0.8294,0.8382,0.8447,0.8534,0.8622,0.8669,0.8738,0.8814,0.8931,0.892,0.8973,0.8995,0.9054,0.9149,0.9035,0.9037,0.9055,0.9286,0.9295,0.9314,0.9151,0.9154,0.9157,0.9279,0,0.8228,0.8382,0.8412,0.8546,0.8623,0.8634,0.871,0.8773,0.881,0.8883,0.8925,0.9007,0.8986,0.9019,0.9077,0.9125,0.9196,0.9116,0.9224,0.9227,0.9205,0.9335,0.9346,0.9458,0.9296,0.9299,0.9301,0,0.8379,0.845,0.8592,0.867,0.8703,0.8771,0.8856,0.8924,0.8996,0.902,0.9079,0.9095,0.9188,0.9147,0.9277,0.9223,0.9269,0.9299,0.9304,0.9316,0.927,0.9353,0.9494,0.9512,0.9326,0.9324,0.9322,0,0.8448,0.858,0.8682,0.8719,0.8812,0.886,0.8902,0.8971,0.9023,0.9097,0.9132,0.9216,0.9263,0.9329,0.9368,0.9335,0.9496,0.9459,0.952,0.9519,0.9555,0.9552,0.9707,0.9582,0.9582,0.9581,0.9581,0,0.8569,0.8656,0.8714,0.8777,0.8874,0.8909,0.9006,0.9047,0.9109,0.9182,0.9196,0.9265,0.9311,0.9387,0.9418,0.9522,0.9543,0.9566,0.9573,0.9565,0.9563,0.9597,0.9591,0.9586,0.9585,0.9584,0.9583,0,0.8663,0.8705,0.8817,0.8896,0.8918,0.8987,0.9056,0.9118,0.9155,0.9247,0.9271,0.933,0.942,0.9465,0.9577,0.9598,0.9716,0.9718,0.9691,0.9695,0.9754,0.9748,0.9938,0.9965,0.982,0.9822,0.9823,0,0.8739,0.8806,0.8891,0.894,0.8982,0.9061,0.9114,0.9151,0.9205,0.9293,0.9346,0.9436,0.951,0.9653,0.9707,0.9794,0.9799,0.9859,0.9812,0.9802,0.9802,0.9798,0.9806,0.9868,0.9869,0.9871,0.9871,0,0.8869,0.8887,0.8961,0.9043,0.9105,0.9172,0.9238,0.9277,0.9326,0.9387,0.9477,0.9535,0.9648,0.9739,0.9829,0.9874,0.9882,0.9886,0.9905,0.9898,0.988,0.9892,0.9716,0.9882,0.9881,0.988,0.9879,0.9879,0.8958,0.9018,0.9087,0.917,0.9223,0.9285,0.9348,0.9392,0.9468,0.9562,0.958,0.9677,0.975,0.9871,0.9919,0.9997,0.9984,1.0012,1.0019,1.0025,1.0029,0.9866,1.0014,1.0014,1.0013,1.0013,1.0013,0,0.909,0.9135,0.9211,0.9302,0.9367,0.9367,0.944,0.9496,0.958,0.9646,0.9718,0.9824,0.9911,0.9972,1.0061,1.0112,1.0118,1.0135,1.0132,1.0143,1.0035,1.001,1.0128,1.0128,1.0128,1.0128,1.0128,1.0128,0.9166,0.9268,0.9294,0.9424,0.9469,0.9563,0.9605,0.9662,0.9715,0.9831,0.9904,0.9942,1.0007,1.0101,1.0182,1.0198,1.0231,1.0248,1.0264,1.0162,1.015,1.0139,1.0115,1.0254,1.0254,1.0366,1.0367,1.0368]},{"header":{"parameterUnit":"m.s-1","parameterCategory":1,"la1":30.2991,"la2":30.254,"lo1":-89.0895,"lo2":-89.0444,"dy":0.0017,"dx":0.0017,"nx":28,"ny":28,"refTime":"2024-08-10T21:00:00:Z","depth":0,"parameterNumber":3,"parameterNumberName":"V-component_of_WINDS"},"data":[0,0,0,0,0,0,0,0,0,0,0,0,0,0,0,0,0,0,0,0,0,0,0,0,0,0,0,0,0,0,0,0,0,0,0,0,0,0,0,0,0,0,0,0,0,0,0,0,0,0,0,0,0,0,0,0,0,0,-0.108,-0.108,0,-0.1089,-0.1089,-0.1089,-0.1171,-0.1173,-0.1175,-0.1177,-0.1183,-0.1182,-0.118,0,0,0,0,0,0,0,0,0,0,0,0,0,-0.1132,-0.1131,-0.108,-0.108,-0.108,-0.1089,-0.1089,-0.1089,-0.1171,-0.1173,-0.1176,-0.1178,-0.1184,-0.1182,-0.118,0,0,0,0,0,0,0,0,0,0,0,0,0,-0.1122,-0.113,-0.108,-0.1122,-0.1126,-0.1089,-0.1089,-0.1089,-0.117,-0.1173,-0.1177,-0.1179,-0.1185,-0.1182,-0.118,-0.1102,0,0,-0.1171,-0.117,0,0,0,0,0,0,0,0,-0.1122,-0.112,-0.1116,-0.1119,-0.1123,-0.1132,-0.111,-0.1093,-0.117,-0.1153,-0.1177,-0.1181,-0.1164,-0.1163,-0.1158,-0.1102,-0.1102,-0.1171,-0.117,-0.1169,-0.1168,0,0,0,0,0,0,0,-0.1123,-0.112,-0.1083,-0.1116,-0.112,-0.114,-0.1142,-0.1107,-0.1141,-0.1155,-0.1161,-0.1161,-0.1166,-0.116,-0.1159,-0.1102,-0.1171,-0.1169,-0.1167,-0.1166,-0.0983,-0.098,0,0,0,0,0,0,-0.1118,-0.112,-0.1083,-0.1084,-0.1131,-0.1137,-0.1139,-0.1126,-0.1142,-0.1147,-0.1159,-0.1165,-0.1163,-0.1161,-0.1159,-0.1069,-0.1169,-0.1166,-0.1165,-0.0987,-0.0983,-0.0979,0,0,0,0,0,0,-0.1119,-0.1114,-0.1083,-0.1104,-0.1101,-0.1132,-0.1118,-0.1125,-0.1119,-0.1144,-0.1151,-0.1146,-0.1165,-0.1163,-0.1116,-0.107,-0.1165,-0.1163,-0.0991,-0.0985,-0.0981,-0.0887,0,0,0,0,0,0,-0.112,-0.1114,-0.1085,-0.1102,-0.11,-0.1039,-0.1115,-0.1123,-0.1114,-0.1123,-0.1134,-0.1139,-0.1168,-0.1119,-0.1113,-0.1068,-0.116,-0.0995,-0.0988,-0.0982,-0.0895,-0.088,-0.0867,0,0,0,0,0,-0.1122,-0.1057,-0.1083,-0.1078,-0.1064,-0.1037,-0.1035,-0.107,-0.111,-0.1081,-0.1098,-0.1139,-0.1077,-0.1114,-0.1107,-0.1061,-0.0998,-0.099,-0.0983,-0.0901,-0.0883,-0.0868,0,0,0,0,0,0,-0.1032,-0.106,-0.1089,-0.1029,-0.103,-0.105,-0.1015,-0.105,-0.1039,-0.1047,-0.109,-0.1092,-0.1038,-0.1045,-0.1086,-0.0987,-0.1044,-0.1035,-0.0984,-0.0967,-0.0954,-0.0952,-0.1158,0,0,0,0,0,-0.1006,-0.0982,-0.1007,-0.0952,-0.0951,-0.0982,-0.0972,-0.0999,-0.1001,-0.1002,-0.1015,-0.1015,-0.0996,-0.0982,-0.0966,-0.0897,-0.09,-0.0862,-0.0848,-0.0837,-0.0828,-0.0792,-0.0775,-0.0955,-0.0955,-0.0955,0,0,-0.095,-0.0963,-0.0944,-0.0934,-0.0938,-0.0912,-0.0982,-0.0951,-0.0932,-0.0997,-0.0953,-0.0963,-0.0966,-0.0908,-0.0883,-0.0912,-0.078,-0.0828,-0.0818,-0.0816,-0.0783,-0.0766,-0.075,-0.095,-0.0951,-0.0952,0,0,-0.0835,-0.0842,-0.0797,-0.08,-0.0806,-0.0828,-0.0817,-0.0833,-0.0842,-0.0799,-0.0848,-0.0825,-0.0791,-0.0791,-0.0787,-0.0674,-0.0711,-0.0667,-0.0595,-0.0559,-0.0545,-0.0533,-0.0492,-0.0477,-0.0659,-0.0659,-0.0659,0,-0.0764,-0.0727,-0.0768,-0.0734,-0.0728,-0.0788,-0.0742,-0.0743,-0.0742,-0.0736,-0.077,-0.0729,-0.0735,-0.0677,-0.065,-0.0645,-0.0633,-0.0665,-0.0544,-0.0532,-0.0521,-0.0483,-0.0467,-0.0653,-0.0654,-0.0655,-0.0655,0,-0.064,-0.0614,-0.0576,-0.0576,-0.0566,-0.0526,-0.056,-0.0545,-0.0574,-0.0592,-0.0548,-0.0558,-0.0545,-0.0533,-0.056,-0.0479,-0.0498,-0.0537,-0.0595,-0.0498,-0.0462,-0.0448,-0.0646,-0.0648,-0.0649,-0.0651,0,0,-0.0467,-0.0491,-0.0477,-0.0477,-0.0489,-0.0469,-0.0432,-0.0421,-0.0406,-0.0405,-0.0374,-0.0345,-0.0382,-0.0377,-0.0405,-0.0373,-0.0283,-0.0417,-0.0418,-0.0391,-0.0194,-0.0163,-0.0145,-0.0308,-0.0306,-0.0303,-0.0193,0,-0.0355,-0.0294,-0.0331,-0.0264,-0.024,-0.0297,-0.0265,-0.0268,-0.0285,-0.0266,-0.0284,-0.0262,-0.0313,-0.0311,-0.0283,-0.0299,-0.0243,-0.0308,-0.0279,-0.0277,-0.0275,-0.0127,-0.0094,0.0011,-0.0179,-0.0177,-0.0175,0,-0.0217,-0.021,-0.0141,-0.0159,-0.015,-0.012,-0.0113,-0.0095,-0.01,-0.0114,-0.0109,-0.0145,-0.011,-0.0169,-0.012,-0.0163,-0.0154,-0.0161,-0.0157,-0.0155,-0.0219,-0.0118,0.0044,0.006,-0.0154,-0.0156,-0.0157,0,-0.0096,-0.007,-0.0026,-0.0025,-0.0044,-0.0022,-0.0029,-0.0037,-0.0028,-0.0022,-0.0016,-0.0005,0.0001,0.0011,-0.0021,-0.0061,0.0032,-0.003,0.0022,0.0024,0.0046,0.0046,0.0214,0.005,0.005,0.005,0.0049,0,0.0034,0.0079,0.0028,0.0056,0.0105,0.0062,0.0111,0.0098,0.0091,0.0115,0.0066,0.009,0.0046,0.0066,0.0041,0.0086,0.0089,0.0079,0.0072,0.0084,0.0086,0.0091,0.0084,0.0054,0.0053,0.0052,0.0051,0,0.0178,0.0146,0.0191,0.0168,0.0163,0.02,0.0181,0.0206,0.0185,0.0217,0.0221,0.019,0.021,0.0179,0.0197,0.018,0.0242,0.0223,0.0243,0.0239,0.0293,0.0289,0.0471,0.0494,0.0315,0.0317,0.0318,0,0.0263,0.0296,0.0276,0.0288,0.0284,0.0304,0.0313,0.0271,0.0282,0.0278,0.0304,0.032,0.0331,0.0367,0.0346,0.0359,0.0341,0.0404,0.0343,0.0354,0.0344,0.0343,0.0346,0.0418,0.042,0.0422,0.0423,0,0.0419,0.0401,0.0414,0.0422,0.0433,0.0438,0.0439,0.0452,0.0408,0.0423,0.0442,0.0451,0.0468,0.0485,0.0492,0.0486,0.0448,0.0442,0.0455,0.0469,0.048,0.0476,0.0279,0.0439,0.0437,0.0436,0.0435,0.0434,0.0537,0.0563,0.0553,0.0569,0.0565,0.0567,0.0589,0.057,0.0586,0.0596,0.057,0.0596,0.0589,0.0595,0.0593,0.0613,0.0585,0.0604,0.0609,0.0615,0.0624,0.0475,0.0614,0.0613,0.0613,0.0613,0.0612,0,0.0691,0.068,0.0696,0.0698,0.0711,0.0671,0.067,0.0684,0.0707,0.0703,0.0714,0.0737,0.0753,0.0733,0.0745,0.0765,0.0748,0.077,0.0769,0.0769,0.0647,0.0635,0.0784,0.0784,0.0784,0.0784,0.0784,0.0784,0.0772,0.0815,0.0796,0.0836,0.0825,0.0849,0.0852,0.0854,0.085,0.0877,0.089,0.0875,0.0865,0.0876,0.0889,0.0883,0.089,0.0919,0.0907,0.0794,0.0777,0.0761,0.075,0.092,0.0921,0.1027,0.1028,0.1028]}]]